Location: Wald
(31.7579°N, 86.6655°W)
Time: 21:12:16
(UTC+00:00)

Geosat - Pass Details

Date: 14 July 2020
Orbit: 763 x 766 km, 108.0° (Epoch: 13 August)

Event Time Altitude Azimuth Distance (km) Brightness Sun altitude
Exits shadow 02:55:59 51° 123° (ESE) 954 4.0 -21.9°
Maximum altitude 02:57:07 68° 64° (ENE) 821 4.0 -22.1°
Drops below altitude 10° 03:02:06 10° 342° (NNW) 2,304 7.4 -22.8°
Sets 03:04:23 0° 340° (NNW) 3,234 8.4 -23.1°
